AV194 Weather Reports


Display with metric or nautical units.
time (UTC)temp
F
wind
direction
speed
MPH
gust
MPH
rain 1hr
in
rain 24hr
in
rain mn
in
humidity
%
barometer
mb
20260905185529 72 102 3.0 6.0 0.00 0.00 0.00 70 1009.1
20260905185031 72 80 1.0 5.0 0.00 0.00 0.00 70 1009.2
20260905184532 72 360 1.0 6.0 0.00 0.00 0.00 72 1009.2
20260905184028 72 163 2.0 7.0 0.00 0.00 0.00 70 1009.2
20260905183527 73 55 3.0 7.0 0.00 0.00 0.00 70 1009.2
20260905183027 73 49 2.0 8.0 0.00 0.00 0.00 68 1009.2
20260905182528 74 112 2.0 8.0 0.00 0.00 0.00 66 1009.1
20260905182027 75 107 2.0 7.0 0.00 0.00 0.00 65 1009.1
20260905181527 74 115 3.0 6.0 0.00 0.00 0.00 67 1009.2
20260905181026 74 90 4.0 6.0 0.00 0.00 0.00 67 1009.1
20260905180527 73 269 0.0 4.0 0.00 0.00 0.00 72 1009.1
20260905180034 72 121 0.0 4.0 0.00 0.00 0.00 71 1009.2
20260905175526 71 61 0.0 6.0 0.00 0.00 0.00 70 1009.2
20260905175026 72 107 1.0 8.0 0.00 0.00 0.00 70 1009.2
20260905174526 72 14 3.0 9.0 0.00 0.00 0.00 67 1009.2
20260905174025 73 153 3.0 5.0 0.00 0.00 0.00 68 1009.1
20260905173525 73 68 1.0 6.0 0.00 0.00 0.00 67 1009.0
20260905173024 73 78 3.0 6.0 0.00 0.00 0.00 68 1009.0
20260905172525 74 28 3.0 7.0 0.00 0.00 0.00 67 1008.9
20260905172024 74 331 3.0 8.0 0.00 0.00 0.00 63 1008.9
20260905171530 75 87 4.0 8.0 0.00 0.00 0.00 64 1008.9
20260905171024 75 301 1.0 6.0 0.00 0.00 0.00 64 1008.8
20260905170521 74 68 1.0 3.0 0.00 0.00 0.00 72 1008.9
20260905170021 72 327 0.0 6.0 0.00 0.00 0.00 73 1009.0
20260905165522 71 41 2.0 6.0 0.00 0.00 0.00 73 1009.0
20260905165019 71 128 1.0 5.0 0.00 0.00 0.00 71 1009.0
20260905164519 71 110 1.0 5.0 0.00 0.00 0.00 71 1009.0
20260905164020 72 26 2.0 6.0 0.00 0.00 0.00 71 1009.1
20260905163518 72 70 2.0 6.0 0.00 0.00 0.00 70 1009.0
20260905163018 72 57 1.0 8.0 0.00 0.00 0.00 72 1009.1
20260905162517 71 344 3.0 7.0 0.00 0.00 0.00 74 1009.2
20260905162020 71 144 2.0 5.0 0.00 0.00 0.00 77 1009.1
20260905161523 71 102 0.0 5.0 0.00 0.00 0.00 75 1009.2
20260905161016 71 58 2.0 5.0 0.00 0.00 0.00 76 1009.2
20260905160517 71 88 1.0 2.0 0.00 0.00 0.00 78 1009.2
20260905160016 69 238 1.0 2.0 0.00 0.00 0.00 81 1009.2
20260905155513 69 204 0.0 2.0 0.00 0.00 0.00 81 1009.2
20260905155012 69 37 0.0 2.0 0.00 0.00 0.00 79 1009.3
20260905154513 69 28 0.0 2.0 0.00 0.00 0.00 79 1009.4
20260905154017 69 360 0.0 4.0 0.00 0.00 0.00 76 1009.3
20260905153513 70 36 1.0 5.0 0.00 0.00 0.00 75 1009.3
20260905153012 70 31 1.0 5.0 0.00 0.00 0.00 75 1009.3
20260905152513 70 119 1.0 6.0 0.00 0.00 0.00 75 1009.3
20260905152016 70 360 3.0 7.0 0.00 0.00 0.00 75 1009.2
20260905151512 70 13 3.0 6.0 0.00 0.00 0.00 75 1009.3
20260905151011 70 75 0.0 5.0 0.00 0.00 0.00 78 1009.3
20260905150511 70 101 1.0 6.0 0.00 0.00 0.00 76 1009.3
20260905150011 70 24 2.0 6.0 0.00 0.00 0.00 77 1009.3
20260905145515 70 190 0.0 5.0 0.00 0.00 0.00 77 1009.3
20260905145010 70 177 1.0 5.0 0.00 0.00 0.00 78 1009.3
20260905144518 70 102 0.0 5.0 0.00 0.00 0.00 77 1009.4
20260905144013 70 66 0.0 5.0 0.00 0.00 0.00 77 1009.3
20260905143509 70 67 1.0 6.0 0.00 0.00 0.00 77 1009.3
20260905143008 70 113 2.0 6.0 0.00 0.00 0.00 78 1009.4
20260905142508 69 304 0.0 2.0 0.00 0.00 0.00 79 1009.4
20260905142005 69 301 0.0 2.0 0.00 0.00 0.00 82 1009.4
20260905141510 68 86 0.0 2.0 0.00 0.00 0.00 82 1009.5
20260905141003 68 51 0.0 2.0 0.00 0.00 0.00 82 1009.6
20260905140505 68 26 0.0 2.0 0.00 0.00 0.00 83 1009.5
20260905140002 67 14 0.0 2.0 0.00 0.00 0.00 83 1009.5
20260905135600 67 340 0.0 4.0 0.00 0.00 0.00 82 1009.5
20260905135100 67 22 0.0 4.0 0.00 0.00 0.00 84 1009.4
20260905134604 67 103 0.0 2.0 0.00 0.00 0.00 83 1009.4
20260905134100 67 12 0.0 2.0 0.00 0.00 0.00 83 1009.4
20260905133557 67 10 0.0 5.0 0.00 0.00 0.00 83 1009.3
20260905133057 67 118 1.0 5.0 0.00 0.00 0.00 84 1009.3
20260905132557 67 11 1.0 5.0 0.00 0.00 0.00 83 1009.2
20260905132058 67 269 1.0 5.0 0.00 0.00 0.00 83 1009.1
20260905131555 67 69 1.0 5.0 0.00 0.00 0.00 84 1009.0
20260905131055 67 98 0.0 2.0 0.00 0.00 0.00 85 1008.9
20260905130553 66 17 0.0 2.0 0.00 0.00 0.00 85 1009.0
20260905130052 66 21 0.0 2.0 0.00 0.00 0.00 86 1009.0
20260905125551 66 96 0.0 2.0 0.00 0.00 0.00 86 1009.0
20260905125050 66 57 0.0 2.0 0.00 0.00 0.00 87 1009.0
20260905124554 66 50 0.0 2.0 0.00 0.00 0.00 86 1008.9
20260905124048 66 29 0.0 6.0 0.00 0.00 0.00 86 1008.9
20260905123551 66 136 2.0 6.0 0.00 0.00 0.00 87 1008.8
20260905123046 66 80 2.0 5.0 0.00 0.00 0.00 88 1008.7
20260905122546 65 54 0.0 4.0 0.00 0.00 0.00 88 1008.6
20260905122049 65 51 0.0 5.0 0.00 0.00 0.00 88 1008.6
20260905121547 65 34 2.0 5.0 0.00 0.00 0.00 89 1008.5
20260905121045 65 67 0.0 5.0 0.00 0.00 0.00 90 1008.5
20260905120543 64 92 0.0 4.0 0.00 0.00 0.00 90 1008.5
20260905120057 64 360 1.0 4.0 0.00 0.00 0.00 91 1008.5
20260905115543 64 165 0.0 2.0 0.00 0.00 0.00 91 1008.5
20260905115044 64 165 0.0 2.0 0.00 0.00 0.00 92 1008.4
20260905114557 63 178 0.0 2.0 0.00 0.00 0.00 92 1008.3
20260905114041 63 178 0.0 2.0 0.00 0.00 0.00 93 1008.4
20260905113541 63 171 0.0 2.0 0.00 0.00 0.00 93 1008.3
20260905113051 62 202 0.0 2.0 0.00 0.00 0.00 93 1008.3
20260905112539 62 202 0.0 2.0 0.00 0.00 0.00 94 1008.2
20260905112038 61 196 0.0 1.0 0.00 0.00 0.00 94 1008.2
20260905111617 61 196 0.0 1.0 0.00 0.00 0.00 94 1008.2
20260905111037 61 196 0.0 1.0 0.00 0.00 0.00 94 1008.2
20260905110537 61 196 0.0 1.0 0.00 0.00 0.00 93 1008.2
20260905110036 61 196 0.0 1.0 0.00 0.00 0.00 93 1008.2
20260905105536 61 196 0.0 1.0 0.00 0.00 0.00 93 1008.2
20260905105035 60 196 0.0 2.0 0.00 0.00 0.00 93 1008.1
20260905104533 60 196 0.0 1.0 0.00 0.00 0.00 93 1008.1
20260905104033 61 196 0.0 1.0 0.00 0.00 0.00 93 1008.1
20260905103533 61 196 0.0 1.0 0.00 0.00 0.00 93 1008.1
20260905103036 61 196 0.0 1.0 0.00 0.00 0.00 93 1008.0
20260905102533 60 196 0.0 1.0 0.00 0.00 0.00 92 1007.9
20260905102032 60 195 0.0 1.0 0.00 0.00 0.00 92 1008.0
20260905101532 61 165 0.0 1.0 0.00 0.00 0.00 92 1008.0
20260905101031 61 165 0.0 1.0 0.00 0.00 0.00 92 1008.0
20260905100531 61 165 0.0 1.0 0.00 0.00 0.00 92 1007.9
20260905100030 61 165 0.0 1.0 0.00 0.00 0.00 92 1007.9
20260905095530 61 165 0.0 1.0 0.00 0.00 0.00 92 1007.9
20260905095032 61 165 0.0 1.0 0.00 0.00 0.00 92 1007.9
20260905094529 61 165 0.0 2.0 0.00 0.00 0.00 92 1007.8
20260905094028 61 157 0.0 2.0 0.00 0.00 0.00 91 1007.8
20260905093528 61 132 0.0 2.0 0.00 0.00 0.00 91 1007.7
20260905093028 61 197 0.0 2.0 0.00 0.00 0.00 91 1007.6
20260905092530 61 197 0.0 1.0 0.00 0.00 0.00 91 1007.7
20260905092027 61 197 0.0 1.0 0.00 0.00 0.00 91 1007.6
20260905091527 61 145 0.0 1.0 0.00 0.00 0.00 90 1007.6
20260905091027 62 145 0.0 1.0 0.00 0.00 0.00 90 1007.6
20260905090526 62 145 0.0 1.0 0.00 0.00 0.00 90 1007.7
20260905090026 62 145 0.0 1.0 0.00 0.00 0.00 90 1007.6
20260905085525 62 118 0.0 2.0 0.00 0.00 0.00 90 1007.6
20260905085024 62 178 0.0 1.0 0.00 0.00 0.00 89 1007.5
20260905084523 62 182 0.0 1.0 0.00 0.00 0.00 89 1007.5
20260905084024 62 182 0.0 1.0 0.00 0.00 0.00 89 1007.5
20260905083526 63 182 0.0 1.0 0.00 0.00 0.00 89 1007.5
20260905083022 63 126 0.0 1.0 0.00 0.00 0.00 88 1007.5
20260905082522 63 119 0.0 1.0 0.00 0.00 0.00 87 1007.5
20260905082022 63 119 0.0 2.0 0.00 0.00 0.00 87 1007.5
20260905081522 63 119 0.0 2.0 0.00 0.00 0.00 87 1007.5
20260905081021 64 187 0.0 1.0 0.00 0.00 0.00 87 1007.4
20260905080522 64 195 0.0 1.0 0.00 0.00 0.00 87 1007.4
20260905080029 64 195 0.0 2.0 0.00 0.00 0.00 87 1007.4
20260905075521 64 195 0.0 2.0 0.00 0.00 0.00 87 1007.4
20260905075020 64 184 0.0 2.0 0.00 0.00 0.00 87 1007.4
20260905074520 64 180 0.0 2.0 0.00 0.00 0.00 87 1007.4
20260905074020 64 167 0.0 2.0 0.00 0.00 0.00 87 1007.4
20260905073519 64 167 0.0 2.0 0.00 0.00 0.00 87 1007.3
20260905073027 64 212 0.0 2.0 0.00 0.00 0.00 88 1007.5
20260905072619 64 194 0.0 2.0 0.00 0.00 0.00 88 1007.4
20260905072019 63 171 0.0 2.0 0.00 0.00 0.00 89 1007.5
20260905071519 63 244 0.0 1.0 0.00 0.00 0.00 89 1007.6
20260905071019 63 323 0.0 1.0 0.00 0.00 0.00 89 1007.6
20260905070519 63 341 0.0 1.0 0.00 0.00 0.00 89 1007.7
20260905070117 63 341 0.0 1.0 0.00 0.00 0.00 89 1007.7
20260905065516 62 336 0.0 1.0 0.00 0.00 0.00 89 1007.8
20260905065018 62 336 0.0 0.0 0.00 0.00 0.00 89 1007.9
20260905064534 62 336 0.0 0.0 0.00 0.00 0.00 88 1007.9
20260905064014 62 336 0.0 0.0 0.00 0.00 0.00 88 1007.9
20260905063516 62 336 0.0 0.0 0.00 0.00 0.00 88 1007.9
20260905063014 63 336 0.0 2.0 0.00 0.00 0.00 88 1007.9
20260905062513 63 336 0.0 2.0 0.00 0.00 0.00 88 1007.9
20260905062012 63 336 0.0 2.0 0.00 0.00 0.00 88 1007.9
20260905061512 63 336 0.0 0.0 0.00 0.00 0.00 88 1007.9
20260905061012 63 336 0.0 0.0 0.00 0.00 0.00 87 1007.9
20260905060511 63 336 0.0 0.0 0.00 0.00 0.00 88 1007.9
20260905060011 63 336 0.0 2.0 0.00 0.00 0.00 88 1008.0
20260905055510 63 338 0.0 2.0 0.00 0.00 0.00 88 1008.1
20260905055012 63 9 0.0 1.0 0.00 0.00 0.00 87 1008.2
20260905054511 63 355 0.0 2.0 0.00 0.00 0.00 87 1008.1
20260905054013 63 355 0.0 2.0 0.00 0.00 0.00 86 1008.1
20260905053508 63 355 0.0 2.0 0.00 0.00 0.00 86 1008.1
20260905053007 63 355 0.0 2.0 0.00 0.00 0.00 86 1008.2
20260905052506 63 355 0.0 1.0 0.00 0.00 0.00 86 1008.3
20260905052006 64 355 0.0 2.0 0.00 0.00 0.00 86 1008.3
20260905051515 64 355 0.0 2.0 0.00 0.00 0.00 86 1008.2
20260905051005 64 355 0.0 2.0 0.00 0.00 0.00 85 1008.2
20260905050505 64 355 1.0 2.0 0.00 0.00 0.00 85 1008.3
20260905050006 64 355 0.0 2.0 0.00 0.00 0.00 84 1008.3
20260905045503 64 355 0.0 2.0 0.00 0.00 0.00 84 1008.4
20260905045002 64 355 0.0 0.0 0.00 0.00 0.00 84 1008.3
20260905044502 64 355 0.0 0.0 0.00 0.00 0.00 84 1008.3
20260905044000 65 355 0.0 0.0 0.00 0.00 0.00 84 1008.2
20260905043602 65 355 0.0 0.0 0.00 0.00 0.00 84 1008.2
20260905043106 65 355 0.0 0.0 0.00 0.00 0.00 84 1008.1
20260905042603 65 355 0.0 0.0 0.00 0.00 0.00 84 1008.1
20260905042058 65 355 0.0 0.0 0.00 0.00 0.00 84 1008.1
20260905041601 65 355 0.0 1.0 0.00 0.00 0.00 83 1008.3
20260905041058 65 355 0.0 1.0 0.00 0.00 0.00 83 1008.2
20260905040556 65 355 0.0 1.0 0.00 0.00 0.00 83 1008.3
20260905040056 65 355 0.0 0.0 0.00 0.00 0.00 82 1008.2
20260905035555 66 355 0.0 1.0 0.00 0.00 0.00 82 1008.2
20260905035056 66 355 0.0 1.0 0.00 0.00 0.00 82 1008.1
20260905034603 66 355 0.0 1.0 0.00 0.00 0.00 81 1008.1
20260905034055 66 35 0.0 0.0 0.00 0.00 0.00 81 1008.1
20260905033554 67 35 0.0 0.0 0.00 0.00 0.00 80 1008.1
20260905033054 67 35 0.0 0.0 0.00 0.00 0.00 80 1008.1
20260905032554 67 35 0.0 1.0 0.00 0.00 0.00 79 1008.1
20260905032053 67 35 0.0 1.0 0.00 0.00 0.00 79 1008.1
20260905031556 67 35 0.0 1.0 0.00 0.00 0.00 79 1008.1
20260905031053 68 35 0.0 0.0 0.00 0.00 0.00 80 1008.2
20260905030553 68 35 0.0 1.0 0.00 0.00 0.00 79 1008.2
20260905030110 68 35 0.0 1.0 0.00 0.00 0.00 79 1008.3
20260905025554 68 35 0.0 1.0 0.00 0.00 0.00 79 1008.2
20260905025056 68 35 0.0 1.0 0.00 0.00 0.00 80 1008.3
20260905024553 68 35 0.0 1.0 0.00 0.00 0.00 80 1008.3
20260905024052 68 35 0.0 1.0 0.00 0.00 0.00 80 1008.3
20260905023555 68 35 0.0 1.0 0.00 0.00 0.00 79 1008.3
20260905023052 68 35 0.0 1.0 0.00 0.00 0.00 79 1008.4
20260905022551 68 35 0.0 1.0 0.00 0.00 0.00 78 1008.3
20260905022052 68 13 0.0 1.0 0.00 0.00 0.00 78 1008.4
20260905021552 69 13 0.0 1.0 0.00 0.00 0.00 78 1008.3
20260905021052 68 13 0.0 1.0 0.00 0.00 0.00 77 1008.4
20260905020551 68 13 0.0 1.0 0.00 0.00 0.00 78 1008.5
20260905020052 68 13 0.0 1.0 0.00 0.00 0.00 78 1008.6
20260905015551 68 61 0.0 2.0 0.00 0.00 0.00 79 1008.5
20260905015053 68 61 0.0 2.0 0.00 0.00 0.00 79 1008.7
20260905014556 68 81 0.0 2.0 0.00 0.00 0.00 79 1008.6
20260905014050 68 55 0.0 1.0 0.00 0.00 0.00 79 1008.7
20260905013553 68 55 0.0 1.0 0.00 0.00 0.00 77 1008.7
20260905013053 68 55 0.0 1.0 0.00 0.00 0.00 76 1008.7
20260905012552 69 55 0.0 2.0 0.00 0.00 0.00 76 1008.8
20260905012054 69 55 0.0 2.0 0.00 0.00 0.00 76 1008.7
20260905011551 69 265 0.0 0.0 0.00 0.00 0.00 76 1008.7
20260905011050 69 265 0.0 0.0 0.00 0.00 0.00 75 1008.6
20260905010554 69 265 0.0 1.0 0.00 0.00 0.00 75 1008.5
20260905010049 69 265 0.0 1.0 0.00 0.00 0.00 75 1008.6
20260905005550 69 265 0.0 0.0 0.00 0.00 0.00 75 1008.7
20260905005051 69 265 0.0 0.0 0.00 0.00 0.00 73 1008.6
20260905004549 69 265 0.0 1.0 0.00 0.00 0.00 74 1008.5
20260905004048 70 265 0.0 1.0 0.00 0.00 0.00 74 1008.4
20260905003549 70 265 0.0 1.0 0.00 0.00 0.00 74 1008.5
20260905003049 70 265 0.0 1.0 0.00 0.00 0.00 73 1008.5
20260905002547 70 284 0.0 1.0 0.00 0.00 0.00 73 1008.6
20260905002050 70 284 0.0 2.0 0.00 0.00 0.00 71 1008.4
20260905001548 70 285 0.0 2.0 0.00 0.00 0.00 71 1008.4
20260905001047 70 286 0.0 2.0 0.00 0.00 0.00 71 1008.4
20260905000548 71 284 0.0 1.0 0.00 0.00 0.00 71 1008.4
20260905000048 71 255 0.0 1.0 0.00 0.00 0.00 72 1008.4
20260904235548 71 123 0.0 1.0 0.00 0.00 0.00 73 1008.5
20260904235047 71 351 0.0 1.0 0.00 0.00 0.00 73 1008.4
20260904234548 71 355 0.0 1.0 0.00 0.00 0.00 72 1008.4
20260904234049 71 298 0.0 1.0 0.00 0.00 0.00 71 1008.2
20260904233546 71 298 0.0 1.0 0.00 0.00 0.00 72 1008.1
20260904233048 72 298 0.0 1.0 0.00 0.00 0.00 71 1008.0
20260904232546 72 346 0.0 2.0 0.00 0.00 0.00 71 1008.0
20260904232045 72 346 0.0 2.0 0.00 0.00 0.00 70 1008.1
20260904231546 72 42 0.0 1.0 0.00 0.00 0.00 73 1008.0
20260904231046 72 80 0.0 1.0 0.00 0.00 0.00 72 1007.9
20260904230546 72 56 0.0 2.0 0.00 0.00 0.00 71 1007.9
20260904230046 73 349 0.0 2.0 0.00 0.00 0.00 72 1007.9
20260904225547 73 136 0.0 0.0 0.00 0.00 0.00 71 1007.9
20260904225044 73 136 0.0 1.0 0.00 0.00 0.00 70 1007.9
20260904224545 74 136 0.0 1.0 0.00 0.00 0.00 71 1007.8
20260904224044 74 136 0.0 1.0 0.00 0.00 0.00 71 1007.7
20260904223544 74 146 0.0 2.0 0.00 0.00 0.00 70 1007.7
20260904223050 74 140 0.0 1.0 0.00 0.00 0.00 69 1007.7
20260904222543 75 351 0.0 1.0 0.00 0.00 0.00 69 1007.6
20260904222043 75 351 0.0 1.0 0.00 0.00 0.00 68 1007.7
20260904221550 75 351 0.0 5.0 0.00 0.00 0.00 67 1007.7
20260904221045 75 302 2.0 5.0 0.00 0.00 0.00 65 1007.6
20260904220543 75 60 0.0 2.0 0.00 0.00 0.00 67 1007.6
20260904220059 76 132 0.0 4.0 0.00 0.00 0.00 66 1007.6
20260904215542 76 160 0.0 4.0 0.00 0.00 0.00 65 1007.6
20260904215046 76 238 0.0 2.0 0.00 0.00 0.00 68 1007.6
20260904214543 77 224 0.0 2.0 0.00 0.00 0.00 68 1007.5
20260904214042 77 179 0.0 4.0 0.00 0.00 0.00 67 1007.5
20260904213542 77 57 0.0 4.0 0.00 0.00 0.00 67 1007.4
20260904213042 76 151 0.0 2.0 0.00 0.00 0.00 68 1007.5
20260904212542 76 296 0.0 2.0 0.00 0.00 0.00 68 1007.5
20260904212043 76 279 0.0 4.0 0.00 0.00 0.00 69 1007.4
20260904211550 76 137 0.0 5.0 0.00 0.00 0.00 69 1007.5
20260904211041 76 280 0.0 7.0 0.00 0.00 0.00 66 1007.6
20260904210541 76 290 1.0 2.0 0.00 0.00 0.00 68 1007.6
20260904210046 76 74 0.0 4.0 0.00 0.00 0.00 68 1007.5
20260904205541 76 80 2.0 4.0 0.00 0.00 0.00 68 1007.5
20260904205042 76 168 0.0 1.0 0.00 0.00 0.00 66 1007.5
20260904204539 76 126 0.0 1.0 0.00 0.00 0.00 64 1007.4
20260904204039 77 116 0.0 2.0 0.00 0.00 0.00 65 1007.5
20260904203539 77 232 0.0 8.0 0.00 0.00 0.00 63 1007.5
20260904203039 77 80 0.0 8.0 0.00 0.00 0.00 63 1007.5
20260904202539 77 76 2.0 7.0 0.00 0.00 0.00 63 1007.5
20260904202038 77 140 0.0 4.0 0.00 0.00 0.00 63 1007.5
20260904201539 78 239 1.0 7.0 0.00 0.00 0.00 65 1007.6
20260904201038 78 36 2.0 7.0 0.00 0.00 0.00 65 1007.6
20260904200538 78 5 2.0 5.0 0.00 0.00 0.00 62 1007.6
20260904200045 78 81 1.0 5.0 0.00 0.00 0.00 63 1007.7
20260904195539 78 22 1.0 4.0 0.00 0.00 0.00 62 1007.6
20260904195038 78 52 0.0 4.0 0.00 0.00 0.00 62 1007.7
20260904194620 79 328 1.0 5.0 0.00 0.00 0.00 60 1007.7
20260904194037 79 64 0.0 5.0 0.00 0.00 0.00 59 1007.7
20260904193537 79 68 2.0 7.0 0.00 0.00 0.00 58 1007.6
20260904193041 79 112 1.0 7.0 0.00 0.00 0.00 59 1007.6
20260904192536 79 272 1.0 8.0 0.00 0.00 0.00 58 1007.6
20260904192036 79 331 2.0 11.0 0.00 0.00 0.00 59 1007.5
20260904191536 80 288 2.0 11.0 0.00 0.00 0.00 55 1007.6
20260904191038 81 360 1.0 9.0 0.00 0.00 0.00 54 1007.5
20260904190536 81 27 2.0 7.0 0.00 0.00 0.00 52 1007.5
20260904190036 81 44 1.0 8.0 0.00 0.00 0.00 51 1007.3